SCP
0 1 0 1 1 0 0 0 0 0 0 0 0 0 0 0 0 0 0 0 0 0 0 0 0 0 0 0 0 0 0 0 0 0 0 0 0 0 0 0 0 0 0
1 1 1 1 1 0 0 0 0 0 0 0 0 0 0 0 0 1 0 0 1 0 0 0 0 0 0 0 0 0 0 0 0 0 0 0 0 0 0 0 0 0 0
1 2 1 1 2 1 1 0 0 1 0 0 0 0 0 0 1 1 1 1 1 0 0 0 0 0 0 0 0 0 0 0 0 0 0 0 0 0 0 0 0 0 0
1 3 2 1 1 3 2 2 1 1 0 0 0 1 0 1 1 2 1 1 1 0 1 1 1 0 0 0 0 0 0 0 0 0 0 0 0 0 0 0 0 0 0
2 4 1 2 3 2 3 2 2 1 0 0 0 1 3 3 2 1 2 2 1 0 0 1 0 0 0 0 0 0 0 0 0 0 0 0 0 0 0 0 0 0 0
4 2 3 3 3 2 3 2 2 1 1 0 0 0 3 6 5 2 3 1 1 1 0 0 0 0 0 0 0 0 0 0 0 0 0 0 0 0 0 0 0 0 0
5 6 4 3 6 2 3 3 3 2 0 1 0 4 4 5 3 2 2 2 2 0 0 0 0 0 0 0 0 0 0 0 0 0 0 0 0 0 0 0 0 0 0
3 5 4 5 3 3 3 4 3 1 1 0 2 4 4 3 3 3 3 2 1 0 0 0 0 0 0 0 0 0 0 0 0 0 0 0 0 0 0 0 0 0 0
5 4 4 4 6 4 4 5 2 2 1 1 3 4 4 3 2 2 1 1 0 0 0 0 0 0 0 0 0 0 0 0 0 0 0 0 0 0 0 0 0 0 0
5 5 4 5 3 5 3 4 4 3 3 1 2 2 6 5 3 1 1 0 0 0 0 0 0 0 0 0 0 0 0 0 0 0 0 0 0 0 0 0 0 0 0
5 4 5 3 4 4 2 5 3 3 2 3 1 3 2 3 4 3 0 0 0 0 0 0 0 0 0 0 0 0 0 0 0 0 0 0 0 0 0 0 0 0 0
7 5 4 4 5 4 3 2 2 3 3 1 1 7 5 4 4 2 2 0 0 0 0 0 0 0 0 0 0 0 0 0 0 0 0 0 0 0 0 0 0 0 0
5 4 4 5 5 5 3 3 4 3 4 3 1 2 3 1 1 0 0 0 0 0 0 0 0 0 0 0 0 0 0 0 0 0 0 0 0 0 0 0 0 0 0
4 3 3 4 5 5 4 3 3 4 4 3 3 4 0 0 0 0 0 0 0 0 0 0 0 0 0 0 0 0 0 0 0 0 0 0 0 0 0 0 0 0 0
4 3 2 2 3 5 5 4 3 3 1 3 4 0 0 0 0 0 0 0 0 0 0 0 0 0 0 0 0 0 0 0 0 0 0 0 0 0 0 0 0 0 0
2 2 3 2 2 2 4 5 4 4 5 2 0 0 0 0 0 0 0 0 0 0 0 0 0 0 0 0 0 0 0 0 0 0 0 0 0 0 0 0 0 0 0
2 1 2 2 1 2 2 3 3 2 0 0 0 0 0 0 0 0 0 0 0 0 0 0 0 0 0 0 0 0 0 0 0 0 0 0 0 0 0 0 0 0 0
1 2 2 1 2 2 2 1 1 0 0 0 0 0 0 0 0 0 0 0 0 0 0 0 0 0 0 0 0 0 0 0 0 0 0 0 0 0 0 0 0 0 0
2 1 1 2 1 2 1 0 0 0 0 0 0 0 0 0 0 0 0 0 0 0 0 0 0 0 0 0 0 0 0 0 0 0 0 0 0 0 0 0 0 0 0
2 1 3 1 0 0 0 0 0 0 0 0 0 0 0 0 0 0 0 0 0 0 0 0 0 0 0 0 0 0 0 0 0 0 0 0 0 0 0 0 0 0 0
1 2 1 0 0 0 0 0 0 0 0 0 0 0 0 0 0 0 0 0 0 0 0 0 0 0 0 0 0 0 0 0 0 0 0 0 0 0 0 0 0 0 0
2 1 1 0 0 0 0 0 0 0 0 0 0 0 0 0 0 0 0 0 0 0 0 0 0 0 0 0 0 0 0 0 0 0 0 0 0 0 0 0 0 0 0
2 1 1 0 0 0 0 0 0 0 0 0 0 -0 0 0 0 0 0 -0 -0 0 0 -0 0 0 0 0 0 0 0 0 0 0 -0 0 0 0 0 0 0 0 0
1 0 0 0 0 0 0 0 0 0 0 0 0 0 -0 -0 0 0 0 0 0 0 -0 0 0 0 0 -0 -0 0 0 0 0 0 -0 0 0 0 0 0 0 0 0
0 0 0 0 0 0 0 0 0 0 0 0 0 0 0 0 0 -0 0 0 0 -0 0 0 -0 -0 -0 -0 -0 0 0 0 0 0 0 0 0 0 0 0 0 0 0
0 0 0 0 0 0 0 0 0 -0 0 0 0 0 0 -0 -0 0 0 0 -0 0 0 0 -0 -0 -0 -0 -0 0 0 0 0 0 0 0 0 0 0 0 0 0 0
Wind_Speed_500mb
51 54 49 43 32 33 33 36 24 23 21 27 27 27 29 22 24 20 20 26 24 24 29 26 21 20 20 22 24 27 30 35 37 40 42 45 47 53 52 58 62 61 58
54 58 49 51 46 30 35 26 33 33 28 22 30 33 29 27 24 31 26 21 19 24 25 23 23 27 28 29 30 32 34 39 39 42 44 47 52 60 61 65 63 61 55
56 55 52 54 48 41 41 45 37 37 35 34 30 25 32 37 29 19 24 25 25 24 22 23 24 26 29 34 36 36 36 41 40 39 45 49 56 57 63 64 64 54 49
53 53 52 51 53 47 46 42 45 42 45 33 36 37 38 37 37 31 32 23 28 19 18 23 29 28 33 36 37 41 44 48 45 41 49 54 55 60 64 68 69 64 47
61 61 62 56 58 55 51 58 46 50 42 41 37 40 37 40 42 39 40 34 31 18 25 27 32 32 35 35 34 41 39 42 43 47 49 55 59 61 65 68 65 58 48
69 65 59 63 59 61 55 54 56 53 53 46 42 35 43 38 39 47 44 33 17 18 21 27 28 34 33 32 36 37 37 37 45 47 50 55 57 59 60 61 58 54 44
75 73 75 69 59 65 60 60 57 54 51 46 41 35 41 45 44 37 28 31 26 32 24 16 19 27 30 33 37 34 39 47 44 45 50 55 53 55 56 55 51 46 42
75 91 69 72 66 63 74 64 66 63 54 54 54 43 30 30 36 45 38 35 26 32 26 27 27 20 20 32 39 50 53 50 48 49 53 53 55 55 54 52 49 45 39
62 57 67 69 64 73 69 77 73 68 67 65 62 41 27 21 27 36 29 36 36 30 20 26 32 31 29 18 27 47 53 51 50 53 53 51 52 53 53 50 42 39 39
84 72 77 74 76 67 78 75 80 75 69 69 69 72 42 21 23 18 32 25 38 30 31 26 20 27 32 35 38 43 48 47 57 56 49 51 54 55 50 45 39 40 41
68 78 85 81 73 75 70 70 75 84 82 59 56 66 71 46 33 16 20 24 25 19 17 24 34 24 27 31 47 51 51 52 57 50 47 53 55 53 47 42 41 47 47
67 67 70 75 79 73 80 75 66 74 68 73 54 54 63 60 68 55 23 23 21 20 27 25 17 17 18 26 41 51 51 53 53 49 50 52 52 53 52 51 55 55 50
51 59 69 75 77 80 80 75 68 55 65 68 72 61 40 50 56 51 41 31 45 43 29 21 17 19 26 37 39 49 48 50 49 46 45 52 58 66 59 55 53 48 45
47 54 60 69 86 81 82 78 80 69 68 67 63 60 65 68 53 47 52 51 37 31 25 13 22 28 31 38 41 46 45 46 40 36 47 54 60 67 62 48 50 52 45
53 57 50 56 69 80 80 79 78 79 74 61 64 64 67 69 53 47 47 46 46 31 18 30 25 26 31 35 41 42 41 38 36 37 46 49 62 61 58 55 55 57 47
50 53 50 52 56 65 71 81 78 75 65 66 71 74 71 66 54 45 36 34 31 29 31 28 20 19 30 36 34 33 33 35 32 39 46 55 56 63 59 59 55 56 53
52 47 51 49 49 57 63 72 80 67 70 73 71 72 68 61 51 38 30 24 20 22 20 19 17 25 25 26 28 35 32 32 30 38 45 41 57 60 57 56 53 53 50
48 47 42 43 43 48 53 57 66 67 81 76 78 65 70 51 41 32 25 21 15 10 10 13 11 13 17 22 33 28 29 24 29 28 31 48 49 51 52 50 51 52 56
35 44 44 40 45 45 41 42 57 69 70 77 63 76 60 53 43 37 31 19 5 8 4 9 5 13 12 21 27 26 22 25 24 22 30 36 47 47 50 44 46 53 66
33 34 39 47 44 41 38 36 40 40 77 94 69 67 68 58 49 42 26 18 19 9 9 10 16 9 13 26 24 30 30 33 26 29 32 29 37 42 46 34 40 56 73
32 36 39 42 38 34 30 25 26 19 26 15 40 33 48 60 47 29 25 30 25 21 15 16 7 7 16 25 33 29 33 37 28 28 40 45 42 45 39 43 47 64 75
33 29 40 43 36 32 28 31 25 9 32 21 20 55 45 48 33 40 38 29 22 19 16 5 5 11 18 28 29 32 42 41 42 39 45 44 38 47 33 36 51 68 60
36 36 35 35 33 35 47 37 26 27 36 38 51 45 26 32 35 39 40 31 25 18 15 14 16 18 27 39 37 37 39 36 39 38 49 49 43 27 32 35 55 55 46
33 38 37 35 35 35 39 33 31 36 55 67 57 41 39 48 44 38 36 33 28 26 24 22 27 30 41 43 49 32 31 30 31 41 52 34 53 39 20 36 45 41 43
36 38 39 43 38 34 35 36 39 57 72 60 55 53 48 54 42 35 33 32 30 29 29 36 38 38 39 40 48 45 38 38 35 39 49 46 48 58 26 36 44 48 47
36 37 41 36 33 37 37 44 63 76 74 71 61 59 55 49 43 39 34 36 38 39 40 33 30 33 33 35 41 41 41 36 40 29 58 43 49 51 33 45 51 50 49
Wind_Direction_500mb
201 214 206 228 244 238 220 224 234 230 235 203 196 202 233 248 231 241 271 293 282 306 321 313 300 299 294 295 301 304 308 311 314 314 314 315 318 320 319 320 316 314 315
202 216 212 209 228 235 225 224 213 228 238 213 223 203 216 219 240 250 257 271 289 305 314 324 319 309 293 293 295 301 307 308 310 310 310 309 318 315 312 312 310 309 313
209 218 219 208 211 225 209 227 207 214 225 219 217 216 209 222 235 240 263 263 286 293 305 307 307 306 298 297 297 300 302 296 300 299 303 301 300 303 304 305 307 311 310
226 222 217 220 216 213 213 214 207 212 221 215 208 224 236 225 224 233 235 258 272 265 281 297 302 304 299 301 294 291 299 294 297 293 293 295 297 299 300 303 306 308 308
233 216 223 218 215 216 219 217 214 214 223 209 217 215 235 229 234 223 239 227 241 273 290 293 295 294 299 301 296 299 299 300 303 301 298 295 298 300 303 305 307 309 309
235 230 220 216 223 213 219 219 215 218 215 213 206 222 227 232 230 237 247 240 241 254 256 269 285 293 295 293 298 303 303 306 306 305 300 300 303 305 307 308 312 313 310
229 234 220 222 215 217 214 218 212 217 218 209 214 229 216 217 241 239 221 220 262 237 251 259 265 276 279 296 310 311 306 310 312 309 310 308 310 311 313 317 314 310 306
230 218 227 222 220 219 216 216 218 214 216 203 213 222 212 238 238 235 226 234 219 245 262 261 245 239 261 285 300 300 304 315 317 318 317 317 320 318 317 315 316 318 318
240 240 227 233 221 221 216 218 220 220 213 210 208 211 207 212 230 241 229 215 223 238 227 257 274 284 300 300 273 292 304 312 315 320 320 322 318 318 321 323 322 321 317
238 235 232 231 230 221 224 224 220 217 214 217 212 215 224 231 194 193 225 217 224 235 227 221 259 285 311 324 311 302 307 316 318 322 321 318 319 321 327 322 318 318 316
242 238 238 238 231 230 229 224 230 218 217 217 218 217 220 219 218 201 180 206 231 242 236 214 233 275 313 331 315 311 310 311 316 321 321 325 322 328 325 316 316 317 320
234 241 236 237 239 240 234 232 226 227 228 225 210 218 221 232 230 228 222 202 216 177 210 242 279 310 331 333 313 307 311 312 317 320 327 324 335 335 326 323 323 321 323
218 239 243 239 237 238 239 234 229 233 231 224 222 218 230 221 225 227 216 177 165 175 197 239 289 282 322 328 318 307 312 311 316 326 328 333 342 339 337 329 332 335 325
255 254 248 244 241 240 239 238 232 228 227 229 225 228 231 231 226 226 210 194 177 184 206 204 209 270 308 321 310 313 312 312 326 330 332 336 339 340 341 347 350 347 344
252 245 245 245 240 240 241 240 235 230 236 213 213 226 232 233 223 215 220 228 229 208 182 185 201 256 308 312 311 306 314 320 332 334 330 334 335 342 345 351 351 349 345
242 238 244 246 246 242 239 238 235 232 230 222 220 220 227 226 230 233 228 227 229 234 204 206 234 272 305 300 307 322 335 344 343 330 329 332 337 344 346 345 347 348 352
242 245 244 247 252 246 242 239 236 229 221 220 221 219 221 226 228 223 225 221 224 215 199 184 224 278 301 314 337 341 350 345 334 334 332 335 343 341 343 342 342 342 340
248 240 244 247 252 254 250 242 234 227 223 218 218 213 216 212 199 194 187 176 171 165 211 227 236 299 348 339 332 349 329 356 324 332 338 343 341 340 341 341 334 335 339
250 246 245 245 251 261 261 248 244 242 222 216 222 216 201 189 182 177 166 162 165 183 164 208 50 34 28 304 322 321 347 336 354 7 344 352 342 335 332 333 331 331 333
232 242 240 244 248 252 249 240 230 189 200 209 203 192 184 171 170 165 178 153 128 117 163 86 68 69 284 315 333 339 7 358 22 359 346 337 339 332 339 327 321 325 334
232 241 233 246 248 231 231 234 199 160 303 204 155 179 163 153 162 173 146 126 134 146 118 92 152 267 326 352 357 9 7 15 33 345 345 347 335 328 336 322 320 330 339
232 236 229 238 238 217 216 182 192 199 203 217 220 178 151 136 141 130 112 121 133 140 143 149 59 23 9 12 11 26 13 15 7 342 342 349 324 330 352 321 324 333 335
227 226 228 237 219 199 190 208 212 195 210 194 192 181 147 135 126 125 130 128 121 118 104 86 56 47 30 25 22 30 13 25 357 342 336 348 342 10 2 319 332 335 351
213 214 224 222 215 209 201 205 195 184 178 178 179 148 153 120 131 137 127 126 119 107 90 72 56 44 33 26 21 28 15 32 7 337 339 8 0 17 10 327 340 5 5
210 208 209 213 207 190 196 190 195 171 173 165 155 147 134 139 144 132 131 131 115 93 74 56 45 42 30 25 11 20 26 21 2 347 345 5 359 354 15 354 17 17 22
206 195 184 183 180 171 175 170 177 165 159 147 139 136 138 139 136 129 123 112 100 83 63 49 45 41 25 24 11 21 17 10 353 358 355 5 2 357 345 359 28 24 27
Wind_Speed_850mb
51 54 49 43 32 33 33 36 24 23 21 27 27 27 29 22 24 20 20 26 24 24 29 26 21 20 20 22 24 27 30 35 37 40 42 45 47 53 52 58 62 61 58
54 58 49 51 46 30 35 26 33 33 28 22 30 33 29 27 24 31 26 21 19 24 25 23 23 27 28 29 30 32 34 39 39 42 44 47 52 60 61 65 63 61 55
56 55 52 54 48 41 41 45 37 37 35 34 30 25 32 37 29 19 24 25 25 24 22 23 24 26 29 34 36 36 36 41 40 39 45 49 56 57 63 64 64 54 49
53 53 52 51 53 47 46 42 45 42 45 33 36 37 38 37 37 31 32 23 28 19 18 23 29 28 33 36 37 41 44 48 45 41 49 54 55 60 64 68 69 64 47
61 61 62 56 58 55 51 58 46 50 42 41 37 40 37 40 42 39 40 34 31 18 25 27 32 32 35 35 34 41 39 42 43 47 49 55 59 61 65 68 65 58 48
69 65 59 63 59 61 55 54 56 53 53 46 42 35 43 38 39 47 44 33 17 18 21 27 28 34 33 32 36 37 37 37 45 47 50 55 57 59 60 61 58 54 44
75 73 75 69 59 65 60 60 57 54 51 46 41 35 41 45 44 37 28 31 26 32 24 16 19 27 30 33 37 34 39 47 44 45 50 55 53 55 56 55 51 46 42
75 91 69 72 66 63 74 64 66 63 54 54 54 43 30 30 36 45 38 35 26 32 26 27 27 20 20 32 39 50 53 50 48 49 53 53 55 55 54 52 49 45 39
62 57 67 69 64 73 69 77 73 68 67 65 62 41 27 21 27 36 29 36 36 30 20 26 32 31 29 18 27 47 53 51 50 53 53 51 52 53 53 50 42 39 39
84 72 77 74 76 67 78 75 80 75 69 69 69 72 42 21 23 18 32 25 38 30 31 26 20 27 32 35 38 43 48 47 57 56 49 51 54 55 50 45 39 40 41
68 78 85 81 73 75 70 70 75 84 82 59 56 66 71 46 33 16 20 24 25 19 17 24 34 24 27 31 47 51 51 52 57 50 47 53 55 53 47 42 41 47 47
67 67 70 75 79 73 80 75 66 74 68 73 54 54 63 60 68 55 23 23 21 20 27 25 17 17 18 26 41 51 51 53 53 49 50 52 52 53 52 51 55 55 50
51 59 69 75 77 80 80 75 68 55 65 68 72 61 40 50 56 51 41 31 45 43 29 21 17 19 26 37 39 49 48 50 49 46 45 52 58 66 59 55 53 48 45
47 54 60 69 86 81 82 78 80 69 68 67 63 60 65 68 53 47 52 51 37 31 25 13 22 28 31 38 41 46 45 46 40 36 47 54 60 67 62 48 50 52 45
53 57 50 56 69 80 80 79 78 79 74 61 64 64 67 69 53 47 47 46 46 31 18 30 25 26 31 35 41 42 41 38 36 37 46 49 62 61 58 55 55 57 47
50 53 50 52 56 65 71 81 78 75 65 66 71 74 71 66 54 45 36 34 31 29 31 28 20 19 30 36 34 33 33 35 32 39 46 55 56 63 59 59 55 56 53
52 47 51 49 49 57 63 72 80 67 70 73 71 72 68 61 51 38 30 24 20 22 20 19 17 25 25 26 28 35 32 32 30 38 45 41 57 60 57 56 53 53 50
48 47 42 43 43 48 53 57 66 67 81 76 78 65 70 51 41 32 25 21 15 10 10 13 11 13 17 22 33 28 29 24 29 28 31 48 49 51 52 50 51 52 56
35 44 44 40 45 45 41 42 57 69 70 77 63 76 60 53 43 37 31 19 5 8 4 9 5 13 12 21 27 26 22 25 24 22 30 36 47 47 50 44 46 53 66
33 34 39 47 44 41 38 36 40 40 77 94 69 67 68 58 49 42 26 18 19 9 9 10 16 9 13 26 24 30 30 33 26 29 32 29 37 42 46 34 40 56 73
32 36 39 42 38 34 30 25 26 19 26 15 40 33 48 60 47 29 25 30 25 21 15 16 7 7 16 25 33 29 33 37 28 28 40 45 42 45 39 43 47 64 75
33 29 40 43 36 32 28 31 25 9 32 21 20 55 45 48 33 40 38 29 22 19 16 5 5 11 18 28 29 32 42 41 42 39 45 44 38 47 33 36 51 68 60
36 36 35 35 33 35 47 37 26 27 36 38 51 45 26 32 35 39 40 31 25 18 15 14 16 18 27 39 37 37 39 36 39 38 49 49 43 27 32 35 55 55 46
33 38 37 35 35 35 39 33 31 36 55 67 57 41 39 48 44 38 36 33 28 26 24 22 27 30 41 43 49 32 31 30 31 41 52 34 53 39 20 36 45 41 43
36 38 39 43 38 34 35 36 39 57 72 60 55 53 48 54 42 35 33 32 30 29 29 36 38 38 39 40 48 45 38 38 35 39 49 46 48 58 26 36 44 48 47
36 37 41 36 33 37 37 44 63 76 74 71 61 59 55 49 43 39 34 36 38 39 40 33 30 33 33 35 41 41 41 36 40 29 58 43 49 51 33 45 51 50 49
Wind_Direction_850mb
201 214 206 228 244 238 220 224 234 230 235 203 196 202 233 248 231 241 271 293 282 306 321 313 300 299 294 295 301 304 308 311 314 314 314 315 318 320 319 320 316 314 315
202 216 212 209 228 235 225 224 213 228 238 213 223 203 216 219 240 250 257 271 289 305 314 324 319 309 293 293 295 301 307 308 310 310 310 309 318 315 312 312 310 309 313
209 218 219 208 211 225 209 227 207 214 225 219 217 216 209 222 235 240 263 263 286 293 305 307 307 306 298 297 297 300 302 296 300 299 303 301 300 303 304 305 307 311 310
226 222 217 220 216 213 213 214 207 212 221 215 208 224 236 225 224 233 235 258 272 265 281 297 302 304 299 301 294 291 299 294 297 293 293 295 297 299 300 303 306 308 308
233 216 223 218 215 216 219 217 214 214 223 209 217 215 235 229 234 223 239 227 241 273 290 293 295 294 299 301 296 299 299 300 303 301 298 295 298 300 303 305 307 309 309
235 230 220 216 223 213 219 219 215 218 215 213 206 222 227 232 230 237 247 240 241 254 256 269 285 293 295 293 298 303 303 306 306 305 300 300 303 305 307 308 312 313 310
229 234 220 222 215 217 214 218 212 217 218 209 214 229 216 217 241 239 221 220 262 237 251 259 265 276 279 296 310 311 306 310 312 309 310 308 310 311 313 317 314 310 306
230 218 227 222 220 219 216 216 218 214 216 203 213 222 212 238 238 235 226 234 219 245 262 261 245 239 261 285 300 300 304 315 317 318 317 317 320 318 317 315 316 318 318
240 240 227 233 221 221 216 218 220 220 213 210 208 211 207 212 230 241 229 215 223 238 227 257 274 284 300 300 273 292 304 312 315 320 320 322 318 318 321 323 322 321 317
238 235 232 231 230 221 224 224 220 217 214 217 212 215 224 231 194 193 225 217 224 235 227 221 259 285 311 324 311 302 307 316 318 322 321 318 319 321 327 322 318 318 316
242 238 238 238 231 230 229 224 230 218 217 217 218 217 220 219 218 201 180 206 231 242 236 214 233 275 313 331 315 311 310 311 316 321 321 325 322 328 325 316 316 317 320
234 241 236 237 239 240 234 232 226 227 228 225 210 218 221 232 230 228 222 202 216 177 210 242 279 310 331 333 313 307 311 312 317 320 327 324 335 335 326 323 323 321 323
218 239 243 239 237 238 239 234 229 233 231 224 222 218 230 221 225 227 216 177 165 175 197 239 289 282 322 328 318 307 312 311 316 326 328 333 342 339 337 329 332 335 325
255 254 248 244 241 240 239 238 232 228 227 229 225 228 231 231 226 226 210 194 177 184 206 204 209 270 308 321 310 313 312 312 326 330 332 336 339 340 341 347 350 347 344
252 245 245 245 240 240 241 240 235 230 236 213 213 226 232 233 223 215 220 228 229 208 182 185 201 256 308 312 311 306 314 320 332 334 330 334 335 342 345 351 351 349 345
242 238 244 246 246 242 239 238 235 232 230 222 220 220 227 226 230 233 228 227 229 234 204 206 234 272 305 300 307 322 335 344 343 330 329 332 337 344 346 345 347 348 352
242 245 244 247 252 246 242 239 236 229 221 220 221 219 221 226 228 223 225 221 224 215 199 184 224 278 301 314 337 341 350 345 334 334 332 335 343 341 343 342 342 342 340
248 240 244 247 252 254 250 242 234 227 223 218 218 213 216 212 199 194 187 176 171 165 211 227 236 299 348 339 332 349 329 356 324 332 338 343 341 340 341 341 334 335 339
250 246 245 245 251 261 261 248 244 242 222 216 222 216 201 189 182 177 166 162 165 183 164 208 50 34 28 304 322 321 347 336 354 7 344 352 342 335 332 333 331 331 333
232 242 240 244 248 252 249 240 230 189 200 209 203 192 184 171 170 165 178 153 128 117 163 86 68 69 284 315 333 339 7 358 22 359 346 337 339 332 339 327 321 325 334
232 241 233 246 248 231 231 234 199 160 303 204 155 179 163 153 162 173 146 126 134 146 118 92 152 267 326 352 357 9 7 15 33 345 345 347 335 328 336 322 320 330 339
232 236 229 238 238 217 216 182 192 199 203 217 220 178 151 136 141 130 112 121 133 140 143 149 59 23 9 12 11 26 13 15 7 342 342 349 324 330 352 321 324 333 335
227 226 228 237 219 199 190 208 212 195 210 194 192 181 147 135 126 125 130 128 121 118 104 86 56 47 30 25 22 30 13 25 357 342 336 348 342 10 2 319 332 335 351
213 214 224 222 215 209 201 205 195 184 178 178 179 148 153 120 131 137 127 126 119 107 90 72 56 44 33 26 21 28 15 32 7 337 339 8 0 17 10 327 340 5 5
210 208 209 213 207 190 196 190 195 171 173 165 155 147 134 139 144 132 131 131 115 93 74 56 45 42 30 25 11 20 26 21 2 347 345 5 359 354 15 354 17 17 22
206 195 184 183 180 171 175 170 177 165 159 147 139 136 138 139 136 129 123 112 100 83 63 49 45 41 25 24 11 21 17 10 353 358 355 5 2 357 345 359 28 24 27